TimeCST,TemperatureF,Dew PointF,Humidity,Sea Level PressureIn,VisibilityMPH,Wind Direction,Wind SpeedMPH,Gust SpeedMPH,PrecipitationIn,Events,Conditions,WindDirDegrees,DateUTC
12:15 AM,1.4,-0.4,92,30.27,10.0,NW,6.9,-,N/A,,Scattered Clouds,310,2013-02-15 06:15:00
12:35 AM,1.4,-2.2,85,30.27,10.0,NW,5.8,-,N/A,,Mostly Cloudy,320,2013-02-15 06:35:00
12:55 AM,-0.4,-2.2,92,30.28,10.0,NW,6.9,-,N/A,,Mostly Cloudy,320,2013-02-15 06:55:00
1:15 AM,-0.4,-0.4,100,30.28,10.0,NNW,5.8,-,N/A,,Overcast,330,2013-02-15 07:15:00
1:55 AM,-0.4,-2.2,92,30.29,10.0,NW,4.6,-,N/A,,Overcast,320,2013-02-15 07:55:00
2:15 AM,-0.4,-2.2,92,30.29,10.0,NW,4.6,-,N/A,,Overcast,310,2013-02-15 08:15:00
2:35 AM,-0.4,-2.2,92,30.29,10.0,NW,3.5,-,N/A,,Overcast,320,2013-02-15 08:35:00
2:55 AM,-0.4,-2.2,92,30.30,10.0,NNW,3.5,-,N/A,,Mostly Cloudy,340,2013-02-15 08:55:00
3:15 AM,-2.2,-4.0,92,30.29,10.0,Calm,Calm,-,N/A,,Overcast,0,2013-02-15 09:15:00
3:35 AM,-7.6,-9.4,92,30.30,-9999.0,West,3.5,-,N/A,,Unknown,280,2013-02-15 09:35:00
3:55 AM,-7.6,-9.4,92,30.30,-9999.0,West,3.5,-,N/A,,Unknown,270,2013-02-15 09:55:00
4:15 AM,-4.0,-7.6,85,30.30,-9999.0,Calm,Calm,-,N/A,,Unknown,0,2013-02-15 10:15:00
4:35 AM,-7.6,-9.4,92,30.30,-9999.0,Calm,Calm,-,N/A,,Unknown,0,2013-02-15 10:35:00
4:55 AM,-7.6,-9.4,92,30.30,-9999.0,Calm,Calm,-,N/A,,Unknown,0,2013-02-15 10:55:00
5:15 AM,-9.4,-13.0,84,30.30,-9999.0,Calm,Calm,-,N/A,,Unknown,0,2013-02-15 11:15:00
5:35 AM,-11.2,-14.8,84,30.31,-9999.0,Calm,Calm,-,N/A,,Mostly Cloudy,0,2013-02-15 11:35:00
5:55 AM,-9.4,-9999,N/A,30.31,-9999.0,West,3.5,-,N/A,,Overcast,280,2013-02-15 11:55:00
6:15 AM,-9.4,-13.0,84,30.31,-9999.0,West,3.5,-,N/A,,Overcast,270,2013-02-15 12:15:00
6:35 AM,-7.6,-9.4,92,30.32,-9999.0,Calm,Calm,-,N/A,,Overcast,0,2013-02-15 12:35:00
6:55 AM,-4.0,-7.6,85,30.31,-9999.0,Calm,Calm,-,N/A,,Overcast,0,2013-02-15 12:55:00
7:15 AM,-5.8,-9.4,84,30.32,-9999.0,Calm,Calm,-,N/A,,Overcast,0,2013-02-15 13:15:00
7:55 AM,-4.0,-7.6,85,30.32,10.0,Calm,Calm,-,N/A,,Overcast,0,2013-02-15 13:55:00
8:15 AM,-2.2,-5.8,85,30.32,10.0,WSW,3.5,-,N/A,,Overcast,250,2013-02-15 14:15:00
8:35 AM,-0.4,-2.2,92,30.32,10.0,West,3.5,-,N/A,,Mostly Cloudy,270,2013-02-15 14:35:00
8:55 AM,-0.4,-2.2,92,30.33,-9999.0,West,3.5,-,N/A,,Unknown,260,2013-02-15 14:55:00
9:15 AM,-0.4,-2.2,92,30.33,-9999.0,West,4.6,-,N/A,,Unknown,270,2013-02-15 15:15:00
9:35 AM,1.4,-0.4,92,30.34,-9999.0,West,4.6,-,N/A,,Unknown,280,2013-02-15 15:35:00
9:55 AM,5.0,-0.4,78,30.34,-9999.0,West,4.6,-,N/A,,Overcast,260,2013-02-15 15:55:00
10:15 AM,6.8,1.4,79,30.34,-9999.0,West,4.6,-,N/A,,Mostly Cloudy,270,2013-02-15 16:15:00
10:35 AM,8.6,1.4,73,30.34,-9999.0,West,5.8,-,N/A,,Scattered Clouds,270,2013-02-15 16:35:00
10:55 AM,8.6,1.4,73,30.33,-9999.0,West,5.8,-,N/A,,Partly Cloudy,280,2013-02-15 16:55:00
11:15 AM,10.4,3.2,73,30.34,10.0,West,4.6,-,N/A,,Clear,280,2013-02-15 17:15:00
11:55 AM,14.0,5.0,67,30.34,10.0,NW,5.8,-,N/A,,Clear,310,2013-02-15 17:55:00
12:15 PM,14.0,6.8,73,30.33,10.0,NW,5.8,-,N/A,,Clear,310,2013-02-15 18:15:00
12:35 PM,14.0,6.8,73,30.33,10.0,NW,8.1,-,N/A,,Clear,320,2013-02-15 18:35:00
12:55 PM,14.0,6.8,73,30.32,10.0,NW,8.1,-,N/A,,Clear,320,2013-02-15 18:55:00
1:15 PM,15.8,6.8,68,30.32,10.0,NW,6.9,-,N/A,,Clear,310,2013-02-15 19:15:00
1:35 PM,15.8,6.8,68,30.31,10.0,NW,8.1,-,N/A,,Clear,320,2013-02-15 19:35:00
1:55 PM,15.8,6.8,68,30.30,10.0,NW,6.9,-,N/A,,Clear,310,2013-02-15 19:55:00
2:15 PM,15.8,8.6,73,30.30,10.0,NW,8.1,-,N/A,,Partly Cloudy,310,2013-02-15 20:15:00
2:35 PM,15.8,6.8,68,30.30,10.0,West,6.9,-,N/A,,Partly Cloudy,270,2013-02-15 20:35:00
2:55 PM,15.8,6.8,68,30.30,10.0,NW,9.2,-,N/A,,Scattered Clouds,310,2013-02-15 20:55:00
3:15 PM,15.8,6.8,68,30.30,10.0,WNW,6.9,-,N/A,,Mostly Cloudy,290,2013-02-15 21:15:00
3:35 PM,15.8,6.8,68,30.29,10.0,West,6.9,-,N/A,,Overcast,280,2013-02-15 21:35:00
3:55 PM,15.8,6.8,68,30.29,10.0,WNW,5.8,-,N/A,,Scattered Clouds,290,2013-02-15 21:55:00
4:15 PM,14.0,6.8,73,30.29,10.0,WNW,5.8,-,N/A,,Clear,300,2013-02-15 22:15:00
4:35 PM,14.0,6.8,73,30.29,10.0,WNW,4.6,-,N/A,,Clear,290,2013-02-15 22:35:00
4:55 PM,14.0,5.0,67,30.28,10.0,WNW,5.8,-,N/A,,Mostly Cloudy,290,2013-02-15 22:55:00
5:15 PM,12.2,5.0,73,30.28,10.0,West,4.6,-,N/A,,Mostly Cloudy,280,2013-02-15 23:15:00
5:35 PM,8.6,3.2,79,30.28,10.0,West,3.5,-,N/A,,Clear,280,2013-02-15 23:35:00
5:55 PM,8.6,3.2,79,30.27,10.0,West,3.5,-,N/A,,Clear,270,2013-02-15 23:55:00
6:15 PM,5.0,1.4,85,30.27,10.0,West,4.6,-,N/A,,Clear,270,2013-02-16 00:15:00
6:35 PM,5.0,1.4,85,30.26,-9999.0,West,4.6,-,N/A,,Unknown,270,2013-02-16 00:35:00
6:55 PM,5.0,1.4,85,30.26,-9999.0,Calm,Calm,-,N/A,,Unknown,0,2013-02-16 00:55:00
7:15 PM,5.0,1.4,85,30.25,-9999.0,West,3.5,-,N/A,,Unknown,270,2013-02-16 01:15:00
7:35 PM,3.2,1.4,92,30.24,-9999.0,West,3.5,-,N/A,,Unknown,270,2013-02-16 01:35:00
7:55 PM,3.2,1.4,92,30.23,10.0,West,4.6,-,N/A,,Clear,260,2013-02-16 01:55:00
8:15 PM,5.0,1.4,85,30.23,-9999.0,West,4.6,-,N/A,,Unknown,260,2013-02-16 02:15:00
8:35 PM,5.0,3.2,92,30.23,-9999.0,WSW,3.5,-,N/A,,Unknown,240,2013-02-16 02:35:00
8:55 PM,5.0,3.2,92,30.22,-9999.0,Calm,Calm,-,N/A,,Unknown,0,2013-02-16 02:55:00
9:15 PM,5.0,1.4,85,30.22,-9999.0,Calm,Calm,-,N/A,,Unknown,0,2013-02-16 03:15:00
9:35 PM,1.4,-0.4,92,30.21,-9999.0,Calm,Calm,-,N/A,,Unknown,0,2013-02-16 03:35:00
9:55 PM,1.4,-0.4,92,30.20,10.0,South,3.5,-,N/A,,Clear,180,2013-02-16 03:55:00
10:15 PM,3.2,1.4,92,30.19,-9999.0,SSW,3.5,-,N/A,,Unknown,210,2013-02-16 04:15:00
10:35 PM,5.0,3.2,92,30.19,-9999.0,Calm,Calm,-,N/A,,Unknown,0,2013-02-16 04:35:00
10:55 PM,5.0,3.2,92,30.18,10.0,SSW,3.5,-,N/A,,Partly Cloudy,200,2013-02-16 04:55:00
11:15 PM,3.2,1.4,92,30.18,-9999.0,SSW,3.5,-,N/A,,Mostly Cloudy,200,2013-02-16 05:15:00
11:35 PM,3.2,1.4,92,30.17,-9999.0,SSW,3.5,-,N/A,,Unknown,200,2013-02-16 05:35:00
11:55 PM,5.0,1.4,85,30.17,-9999.0,South,3.5,-,N/A,,Mostly Cloudy,180,2013-02-16 05:55:00